Location: Palomar Mountain Lodge
(33.3110°N, 116.8495°W)
Time: 07:44:56
(UTC-07:00)

YAOGAN 11 - Pass Details

Date: 19 May 2017
Orbit: 614 x 666 km, 98.3° (Epoch: 23 September)

Event Time Altitude Azimuth Distance (km) Brightness Sun altitude
Exits shadow 21:53:47 73° 92° (E) 641 3.9 -23.0°
Maximum altitude 21:53:53 74° 76° (ENE) 640 3.9 -23.0°
Drops below altitude 10° 21:58:10 10° 352° (N) 1,976 7.4 -23.6°
Sets 22:00:21 0° 350° (N) 2,888 8.4 -23.9°
